Home > Weather > Londonderry > Past weeks

Flag for United Kingdom Weather for the Past 2 Weeks in Londonderry, Northern Ireland, United Kingdom

Now
43 °F

Partly sunny.


Feels Like: 38 °F
Forecast: 34 / 44 °F
Wind: 8 mph from East

Location: Eglinton / Londonderry

Current Time: Feb 12, 2016 at 12:32:40 PM

Latest Report: Feb 12, 2016 at 11:50 AM


Visibility: N/A

Pressure: 29.36 "Hg

Humidity: 87%

Dew point: 39 °F

Location of LondonderryLocation

Historic Weather in Londonderry — Graph

°F

Londonderry Temperature Yesterday

Maximum temperature yesterday: 43 °F (at 1:50 PM)
Minimum temperature yesterday: 30 °F (at 6:20 AM)
Average temperature yesterday: 37 °F

High & Low Weather Summary for the Past Weeks

 TemperatureHumidityPressure
High55 °F (Feb 1, 6:20 AM)100% (Jan 30, 10:50 AM)30.21 "Hg (Jan 30, 10:50 AM)
Low30 °F (Feb 11, 6:20 AM)57% (Jan 30, 2:50 PM)28.47 "Hg (Feb 8, 6:50 AM)
Average44 °F86%29.41 "Hg
* Reported Jan 28 11:20 AM — Feb 12 11:20 AM, Londonderry, Weather by CustomWeather, © 2016

Note: Actual official high and low records may vary slightly from our data, if they occured in-between our weather recording intervals... More about our weather records

Advertising

Londonderry Weather History for the Previous 24 Hours

 ConditionsComfort  
Time TempWeatherWind HumidityBarometerVisibility
11:20 AM
Fri, Feb 12
43 °FPartly sunny.8 mph93%29.36 "HgN/A
10:50 AM41 °FPartly sunny.9 mph93%29.36 "HgN/A
10:20 AM39 °FPartly sunny.8 mph100%29.36 "Hg6 mi
9:50 AM39 °FPartly sunny.6 mph100%29.36 "Hg5 mi
9:20 AM41 °FPartly sunny.5 mph93%29.33 "Hg5 mi
8:50 AM39 °FLow clouds.7 mph100%29.33 "Hg6 mi
8:20 AM37 °FLight rain. Partly sunny.6 mph100%29.33 "Hg5 mi
7:50 AM37 °FPartly cloudy.2 mph100%29.33 "HgN/A
7:20 AM37 °FLight rain. Passing clouds.6 mph100%29.33 "Hg6 mi
6:50 AM39 °FLight rain. Overcast.6 mph93%29.33 "Hg6 mi
6:20 AM39 °FLight rain. Passing clouds.7 mph100%29.33 "HgN/A
3:50 PM
Thu, Feb 11
41 °FPassing clouds.2 mph87%29.53 "HgN/A
3:20 PM41 °FScattered showers. Scattered clouds.3 mph81%29.53 "HgN/A
2:50 PM43 °FScattered clouds.2 mph81%29.53 "HgN/A
2:20 PM41 °FScattered clouds.5 mph87%29.53 "HgN/A
1:50 PM43 °FScattered clouds.1 mph81%29.53 "HgN/A
1:20 PM41 °FScattered clouds.1 mph87%29.56 "HgN/A
12:50 PM41 °FScattered clouds.2 mph87%29.56 "HgN/A
12:20 PM41 °FScattered clouds.2 mph93%29.56 "HgN/A
Weather by CustomWeather, © 2016

See weather overviewHow to use our weather pages